sat.trackr.live / text

‹ back to catalog

COSMOS 2613

NORAD 68763 · 2026-083J

PAYLOAD ACTIVE UNKNOWN

§ Identity

Operator
Country
CIS
Launch date
2026-04-16
Launch site
PLMSC
Launch vehicle
Mass (kg)
RCS (m²)

External: N2YO · Heavens-Above · Gunter

§ Orbital elements

Epoch: 2026-05-24T22:30:29.248992Z

Period
95.53 min
Inclination
97.7768°
Eccentricity
0.0010920
Mean motion
15.07366863 rev/d
Perigee alt
536.7 km
Apogee alt
551.8 km
Semi-major
6,922.4 km
B*
1.4713e-4
RAAN
282.7167°
Arg perigee
128.3677°
Mean anomaly
231.8534°
Rev number
570

§ Raw data

COSMOS 26131 68763U 26083J   26144.93783853  .00002162  00000+0  14713-3 0  99912 68763  97.7768 282.7167 0010920 128.3677 231.8534 15.07366863  5708

JSON: /api/v1/satellites/68763 · /tle

For live sub-satellite position, see the globe view (requires WebGL).

§ Visibility from observer

Set your observer location to see the next 7 days of passes ≥ 10°. The values pass through the URL so the page stays shareable.

No JS? Fill the form by hand. The geolocation button needs JavaScript.